Regional Weather Roundup
Issued by NWS

Home | Current Version | Previous Version | Text Only | Print | Product List | Glossary Off
Versions: 1 2 3 4 5 6 7 8 9 10 11 12 13 14 15 16 17 18 19 20 21 22 23 24 25 26 27 28 29 30 31 32 33 34 35 36 37 38 39 40 41 42 43 44 45 46 47 48 49 50

000
ASUS43 KLOT 192103
RWRIL

ILLINOIS REGIONAL WEATHER ROUNDUP
NATIONAL WEATHER SERVICE CHICAGO/ROMEOVILLE IL
400 PM CDT SAT AUG 19 2017

NOTE: "FAIR" INDICATES FEW OR NO CLOUDS BELOW 12,000 FEET WITH NO
SIGNIFICANT WEATHER AND/OR OBSTRUCTIONS TO VISIBILITY.

* THESE STATIONS ARE NOT UNDER NWS QUALITY CONTROL. THEY ALSO MAY NOT
  REPORT WEATHER SUCH AS PRECIPITATION OR FOG.

ILZ001-002-007-009-015-016-024-192200-
NORTHWEST ILLINOIS

CITY           SKY/WX    TMP DP  RH WIND       PRES   REMARKS
MOLINE         SUNNY     83  61  47 SE7       29.95S HX  83
STERLING*      SUNNY     81  61  50 CALM      29.96F HX  82
SAVANNA*       SUNNY     81  62  51 SW5       29.96S HX  82
$$

ILZ003-004-008-010-011-017-018-192200-
NORTH CENTRAL ILLINOIS

CITY           SKY/WX    TMP DP  RH WIND       PRES   REMARKS
ROCKFORD       MOSUNNY   80  57  45 VRB3      29.97S HX  80
FREEPORT*      SUNNY     78  57  48 CALM      29.98S
ROCHELLE*      MOSUNNY   80  62  54 CALM      29.97S HX  81
$$

ILZ005-006-012>014-019>023-192200-
NORTHEAST ILLINOIS

CITY           SKY/WX    TMP DP  RH WIND       PRES   REMARKS
CHICAGO-OHARE  MOSUNNY   85  51  31 E5        29.94S HX  83
CHICAGO-MIDWAY MOSUNNY   81  55  40 E8        29.95S HX  81
AURORA         SUNNY     80  59  48 VRB3      29.97R HX  81
LANSING*       SUNNY     82  50  33 NE5       29.96S HX  80
JOLIET*        SUNNY     83  58  43 CALM      29.95S HX  82
WAUKEGAN       SUNNY     77  63  61 SE9       29.95S
DUPAGE AIRPORT MOSUNNY   82  59  45 SE6       29.95S HX  82
KANKAKEE*      SUNNY     82  59  45 CALM      29.96S HX  82
WHEELING       SUNNY     81  58  45 VRB5      29.96S HX  81
MORRIS*        SUNNY     81  54  39 CALM      29.96R HX  80
NORTHERLY ISL    N/A     77  61  57 E8          N/A
$$

LMZ740>746-192200-
SOUTHERN LAKE MICHIGAN

STATION/POSITION SKY/WX   TEMP    WIND        PRES    VSBY  WAVE
                          AIR SEA DIR/SP/G                  HT/PER
                          (F)     (DEG/KT/KT) (MB)    (MI)  (FT/S)
SOUTHERN BUOY              70 73  240/  6/  8 1014.6          1/ 5
WILMETTE HARBOR            73 74  130/  8/ 10   N/A           1/ 4
HARRISON CRIB              74     130/  7/  8   N/A
CALUMET HARBOR             73      80/  7/ 10 1014.3S
BURNS HARBOR               72      30/  6/  8 1015.2F
MICHIGAN CITY              76     340/  3/  5   N/A
MICHIGAN CITY 6N           72 76   20/  2/  4   N/A           1/ 4
ST. JOSEPH                 72     310/  4/  6 1014.7F         1/ 4
$$

ILZ025>027-034>036-040-047-049-050-058-095>099-192200-
WEST-CENTRAL ILLINOIS

CITY           SKY/WX    TMP DP  RH WIND       PRES   REMARKS
QUINCY         SUNNY     88  62  41 NW3       29.92F HX  88
MACOMB*        SUNNY     83  66  55 CALM      29.97S HX  85
$$

ILZ028>032-037-038-041>044-048-051>054-059>061-192200-
CENTRAL ILLINOIS

CITY           SKY/WX    TMP DP  RH WIND       PRES   REMARKS
BLOOMINGTON    SUNNY     83  63  50 VRB5      29.97F HX  84
DECATUR        PTSUNNY   85  68  56 NE3       29.94S HX  88
PEORIA         SUNNY     86  58  38 CALM      29.94F HX  85
LACON*         SUNNY     83  59  44 E3        29.95S HX  83
LINCOLN*       MOSUNNY   84  66  54 E3        29.94F HX  86
SPRINGFIELD    SUNNY     89  71  55 N6        29.94S HX  95
TAYLORVILLE    NOT AVBL
$$

ILZ033-039-045-046-055>057-062-063-192200-
EAST-CENTRAL ILLINOIS

CITY           SKY/WX    TMP DP  RH WIND       PRES   REMARKS
CHAMPAIGN      MOSUNNY   86  64  47 VRB3      29.95S HX  87
RANTOUL*       SUNNY     86  64  48 NW3       29.95S HX  87
MATTOON        SUNNY     87  69  54 SW6       29.92F HX  91
PARIS*         CLOUDY    84  69  59 NE5       29.94S HX  88
$$

ILZ079-100>102-192200-
SOUTHWEST ILLINOIS

CITY           SKY/WX    TMP DP  RH WIND       PRES   REMARKS
ALTON          MOSUNNY   88  70  55 VRB5      29.93F HX  92
BELLEVILLE     SUNNY     90  71  53 S5        29.93F HX  95
CAHOKIA*       MOSUNNY   92  63  38 SW6       29.91F HX  93
SPARTA*        SUNNY     89  66  46 CALM      29.94F HX  91
$$

ILZ064>066-069>071-074>076-080>082-084>086-088>090-092>094-192200-
SOUTH-CENTRAL ILLINOIS

CITY           SKY/WX    TMP DP  RH WIND       PRES   REMARKS
CARBONDALE     SUNNY     88  72  58 W6        29.94S HX  94
CAIRO*         SUNNY     89  73  57 CALM      29.93S HX  96
EFFINGHAM*     MOSUNNY   89  69  52 SW8       29.94F HX  94
MARION         SUNNY     90  68  48 NW9       29.95S HX  93
MT. VERNON       N/A     89  71  55 SW5       29.93F HX  95
CENTRALIA*     MOSUNNY   91  70  50 W7        29.93F HX  95
SALEM*         MOSUNNY   90  67  46 SW3       29.93F HX  93
METROPOLIS*    MOSUNNY   92  69  46 CALM      29.94S HX  97
$$

ILZ067-068-072-073-078-083-087-091-192200-
SOUTHEAST ILLINOIS

CITY           SKY/WX    TMP DP  RH WIND       PRES   REMARKS
LAWRENCEVILLE  SUNNY     91  67  44 SW14      29.92F HX  94
FLORA*         PTSUNNY   86  73  63 S6        29.93F HX  93
FAIRFIELD*     MOSUNNY   88  69  53 CALM      29.92F HX  92
HARRISBURG*    SUNNY     91  70  50 NW3       29.93F HX  95
ROBINSON*      TSTM      76  67  71 N13       29.95R
CARMI*         SUNNY     87  74  65 CALM      29.93F HX  94
$$

ABBREVIATIONS USED IN REMARKS
   TC - TEMPERATURE IN CELSIUS
  WCI - WIND CHILL INDEX
   HX - HEAT INDEX
  VSB - VISIBILITY
$$





USA.gov is the U.S. government's official web portal to all federal, state and local government web resources and services.